CW5846 Weather Reports


time (UTC)temp
C
wind
direction
speed
KPH
gust
KPH
rain 1hr
cm
rain 24hr
cm
rain mn
cm
humidity
%
barometer
mb
20260505140519 22 220 3.2 12.9 0.00 0.00 0.00 84 1024.6
20260505124932 21 119 3.2 9.7 0.00 0.00 0.00 86 1024.7
20260505124429 21 155 11.3 12.9 0.00 0.00 0.00 86 1024.5
20260505123925 21 99 1.6 14.5 0.00 0.00 0.00 85 1024.5
20260505123422 21 191 1.6 9.7 0.00 0.00 0.00 86 1024.6
20260505122917 21 76 0.0 12.9 0.00 0.00 0.00 86 1024.5
20260505122415 21 198 4.8 9.7 0.00 0.00 0.00 86 1024.2
20260505121912 21 251 1.6 11.3 0.00 0.00 0.00 86 1024.2
20260505121409 21 240 9.7 16.1 0.00 0.00 0.00 86 1024.1
20260505120904 21 261 3.2 11.3 0.00 0.00 0.00 86 1024.1
20260505120401 21 131 6.4 16.1 0.00 0.00 0.00 86 1024.2
20260505115900 21 182 12.9 20.9 0.00 0.00 0.00 86 1024.2
20260505115357 21 77 1.6 4.8 0.00 0.00 0.00 86 1024.1
20260505114855 21 136 3.2 11.3 0.00 0.00 0.00 86 1024.2
20260505114351 21 117 6.4 9.7 0.00 0.00 0.00 86 1024.2
20260505113847 21 215 3.2 6.4 0.00 0.00 0.00 86 1024.2
20260505113344 21 265 1.6 9.7 0.00 0.00 0.00 86 1024.2
20260505112840 21 178 3.2 11.3 0.00 0.00 0.00 86 1023.9
20260505112337 21 127 1.6 3.2 0.00 0.00 0.00 86 1024.1
20260505111833 21 127 1.6 12.9 0.00 0.00 0.00 86 1023.8
20260505111329 21 34 6.4 12.9 0.00 0.00 0.00 86 1024.0
20260505110825 21 154 8.0 11.3 0.00 0.00 0.00 86 1023.9
20260505110322 21 192 8.0 14.5 0.00 0.00 0.00 86 1023.8
20260505101757 21 340 1.6 6.4 0.00 0.00 0.00 86 1023.9
20260505101252 21 251 3.2 6.4 0.00 0.00 0.00 86 1023.9
20260505100749 21 236 3.2 9.7 0.00 0.00 0.00 86 1024.0
20260505100246 21 171 6.4 14.5 0.00 0.00 0.00 86 1024.0
20260505095741 21 203 6.4 16.1 0.00 0.00 0.00 86 1024.1
20260505095239 21 304 3.2 12.9 0.00 0.00 0.00 86 1023.9
20260505094734 21 207 4.8 12.9 0.00 0.00 0.00 85 1024.1
20260505094231 21 145 3.2 14.5 0.00 0.00 0.00 85 1024.0
20260505093727 21 122 3.2 14.5 0.00 0.00 0.00 85 1024.1
20260505093225 21 5 1.6 9.7 0.00 0.00 0.00 86 1024.1
20260505092722 21 193 3.2 11.3 0.00 0.00 0.00 85 1024.3
20260505092221 21 156 3.2 6.4 0.00 0.00 0.00 86 1024.0
20260505091717 21 160 8.0 11.3 0.00 0.00 0.00 85 1024.1
20260505091215 21 206 9.7 14.5 0.00 0.00 0.00 85 1024.1
20260505090713 21 359 3.2 11.3 0.00 0.00 0.00 85 1024.2
20260505090211 21 197 3.2 11.3 0.00 0.00 0.00 85 1024.3
20260505085708 21 5 0.0 4.8 0.00 0.00 0.00 84 1024.1
20260505085206 21 154 4.8 12.9 0.00 0.00 0.00 84 1024.2
20260505084703 21 199 6.4 9.7 0.00 0.00 0.00 84 1024.4
20260505084202 21 124 6.4 9.7 0.00 0.00 0.00 84 1024.3
20260505083659 21 75 0.0 4.8 0.00 0.00 0.00 84 1024.3
20260505083155 21 311 0.0 9.7 0.00 0.00 0.00 84 1024.5
20260505082651 21 152 6.4 11.3 0.00 0.00 0.00 84 1024.3
20260505082148 21 168 4.8 12.9 0.00 0.00 0.00 84 1024.2
20260505081644 21 220 4.8 11.3 0.00 0.00 0.00 83 1024.4
20260505081142 21 326 1.6 6.4 0.00 0.00 0.00 83 1024.1
20260505080638 21 124 12.9 20.9 0.00 0.00 0.00 83 1024.8
20260505080134 21 81 6.4 12.9 0.00 0.00 0.00 83 1024.6
20260505075631 21 142 4.8 11.3 0.00 0.00 0.00 82 1024.6
20260505075128 21 187 6.4 12.9 0.00 0.00 0.00 82 1024.6
20260505074624 22 155 3.2 9.7 0.00 0.00 0.00 82 1024.8
20260505074121 22 270 3.2 16.1 0.00 0.00 0.00 82 1024.7
20260505073619 22 147 3.2 11.3 0.00 0.00 0.00 82 1024.7
20260505073118 22 44 3.2 11.3 0.00 0.00 0.00 82 1024.9
20260505072613 22 179 4.8 4.8 0.00 0.00 0.00 81 1024.9
20260505072109 22 91 0.0 6.4 0.00 0.00 0.00 81 1025.3
20260505071605 22 225 3.2 9.7 0.00 0.00 0.00 81 1025.0
20260505071103 22 140 4.8 16.1 0.00 0.00 0.00 80 1025.1
20260505070600 22 194 3.2 6.4 0.00 0.00 0.00 80 1024.8
20260505070056 22 255 1.6 6.4 0.00 0.00 0.00 80 1024.9
20260505065552 22 37 8.0 14.5 0.00 0.00 0.00 80 1024.9
20260505065049 22 212 3.2 9.7 0.00 0.00 0.00 80 1025.1
20260505064546 22 205 1.6 11.3 0.00 0.00 0.00 80 1025.3
20260505064044 22 173 3.2 11.3 0.00 0.00 0.00 80 1024.9
20260505063541 22 148 1.6 6.4 0.00 0.00 0.00 79 1025.2
20260505063037 22 136 8.0 16.1 0.00 0.00 0.00 79 1025.2
20260505062534 22 143 8.0 12.9 0.00 0.00 0.00 79 1025.3
20260505062031 22 135 1.6 12.9 0.00 0.00 0.00 79 1025.4
20260505061528 22 137 3.2 4.8 0.00 0.00 0.00 79 1025.3
20260505061026 21 151 3.2 9.7 0.00 0.00 0.00 79 1025.6
20260505060523 21 238 1.6 6.4 0.00 0.00 0.00 79 1025.9
20260505060020 21 198 8.0 12.9 0.00 0.00 0.00 79 1025.6
20260505055515 22 347 3.2 6.4 0.00 0.00 0.00 78 1025.8
20260505055012 21 208 3.2 6.4 0.00 0.00 0.00 78 1025.7
20260505054510 21 162 3.2 4.8 0.00 0.00 0.00 78 1025.9
20260505054008 21 83 1.6 6.4 0.00 0.00 0.00 78 1025.7
20260505053504 21 115 3.2 9.7 0.00 0.00 0.00 78 1025.9
20260505053001 21 207 0.0 4.8 0.00 0.00 0.00 78 1026.0
20260505052458 21 196 9.7 11.3 0.00 0.00 0.00 78 1026.0
20260505051955 21 328 0.0 3.2 0.00 0.00 0.00 78 1025.9
20260505051452 21 169 1.6 12.9 0.00 0.00 0.00 77 1026.0
20260505050951 21 125 3.2 6.4 0.00 0.00 0.00 77 1026.3
20260505050448 21 130 3.2 12.9 0.00 0.00 0.00 77 1026.3
20260505041416 21 172 0.0 3.2 0.00 0.00 0.00 77 1026.6
20260505040913 21 303 0.0 11.3 0.00 0.00 0.00 77 1026.6
20260505040411 21 251 1.6 1.6 0.00 0.00 0.00 77 1026.8
20260505035907 21 325 1.6 4.8 0.00 0.00 0.00 77 1026.9
20260505035403 21 8 1.6 3.2 0.00 0.00 0.00 76 1026.7
20260505034901 21 183 1.6 3.2 0.00 0.00 0.00 76 1026.8
20260505034357 21 208 1.6 9.7 0.00 0.00 0.00 76 1026.9
20260505033854 21 116 1.6 4.8 0.00 0.00 0.00 75 1026.9
20260505033351 21 9 1.6 6.4 0.00 0.00 0.00 74 1026.9
20260505032849 21 141 3.2 4.8 0.00 0.00 0.00 74 1026.9
20260505032345 22 270 1.6 6.4 0.00 0.00 0.00 74 1027.1
20260505031842 22 277 1.6 3.2 0.00 0.00 0.00 73 1027.1
20260505031339 22 193 6.4 9.7 0.00 0.00 0.00 72 1026.9
20260505030836 22 81 3.2 11.3 0.00 0.00 0.00 71 1027.0
20260505030332 22 181 3.2 6.4 0.00 0.00 0.00 71 1027.1
20260505025828 22 182 3.2 6.4 0.00 0.00 0.00 71 1026.9
20260505025326 22 122 4.8 4.8 0.00 0.00 0.00 71 1026.8
20260505024824 22 176 0.0 4.8 0.00 0.00 0.00 71 1026.8
20260505024321 22 169 3.2 11.3 0.00 0.00 0.00 71 1026.9
20260505023818 22 169 1.6 9.7 0.00 0.00 0.00 71 1026.9
20260505023315 22 210 1.6 6.4 0.00 0.00 0.00 71 1027.0
20260505022812 22 173 6.4 9.7 0.00 0.00 0.00 70 1026.8
20260505022309 22 173 4.8 9.7 0.00 0.00 0.00 70 1026.8
20260505021806 22 146 1.6 9.7 0.00 0.00 0.00 70 1026.7
20260505021303 22 329 1.6 4.8 0.00 0.00 0.00 70 1026.9
20260505020759 22 263 3.2 4.8 0.00 0.00 0.00 70 1026.8
20260505020254 22 183 1.6 3.2 0.00 0.00 0.00 69 1027.0
20260505015752 22 139 0.0 3.2 0.00 0.00 0.00 69 1026.8
20260505015249 22 191 0.0 4.8 0.00 0.00 0.00 68 1026.8
20260505014746 22 168 6.4 6.4 0.00 0.00 0.00 68 1026.8
20260505014243 22 143 6.4 9.7 0.00 0.00 0.00 68 1026.7
20260505013739 23 196 1.6 9.7 0.00 0.00 0.00 67 1026.3
20260505013237 23 168 4.8 9.7 0.00 0.00 0.00 67 1026.3
20260505012735 23 184 4.8 12.9 0.00 0.00 0.00 66 1026.3
20260505012232 23 136 3.2 6.4 0.00 0.00 0.00 66 1026.4
20260505011727 23 103 3.2 6.4 0.00 0.00 0.00 65 1026.6
20260505011225 23 344 3.2 9.7 0.00 0.00 0.00 64 1026.4
20260505010720 23 155 4.8 9.7 0.00 0.00 0.00 65 1026.6
20260505010217 23 213 3.2 9.7 0.00 0.00 0.00 64 1026.6
20260505005713 23 299 1.6 14.5 0.00 0.00 0.00 64 1026.4
20260505005211 23 128 1.6 4.8 0.00 0.00 0.00 63 1026.4
20260505004708 23 201 4.8 6.4 0.00 0.00 0.00 63 1026.6
20260505004204 23 118 0.0 3.2 0.00 0.00 0.00 62 1026.2
20260505003701 24 198 1.6 11.3 0.00 0.00 0.00 61 1026.8
20260505003159 24 195 4.8 9.7 0.00 0.00 0.00 60 1026.4
20260505002655 24 341 1.6 17.7 0.00 0.00 0.00 60 1026.4
20260505002153 24 354 3.2 6.4 0.00 0.00 0.00 60 1026.3
20260505001649 24 202 6.4 11.3 0.00 0.00 0.00 60 1026.4
20260505001147 25 159 9.7 16.1 0.00 0.00 0.00 59 1026.6
20260505000644 25 204 1.6 11.3 0.00 0.00 0.00 59 1026.6
20260505000142 25 32 3.2 12.9 0.00 0.00 0.00 59 1026.6
20260504235638 25 192 1.6 4.8 0.00 0.00 0.00 58 1026.6
20260504235135 25 191 6.4 14.5 0.00 0.00 0.00 57 1026.7
20260504234632 25 165 3.2 12.9 0.00 0.00 0.00 57 1027.0
20260504234130 25 139 8.0 12.9 0.00 0.00 0.00 57 1027.2
20260504233625 25 190 4.8 9.7 0.00 0.00 0.00 56 1027.3
20260504233121 25 223 4.8 12.9 0.00 0.00 0.00 55 1027.0
20260504232619 26 204 12.9 16.1 0.00 0.00 0.00 54 1027.3
20260504232116 26 150 6.4 16.1 0.00 0.00 0.00 54 1027.3
20260504231612 26 148 6.4 12.9 0.00 0.00 0.00 54 1027.2
20260504231109 26 336 1.6 17.7 0.00 0.00 0.00 53 1027.4
20260504230604 26 162 4.8 9.7 0.00 0.00 0.00 53 1027.5
20260504230104 26 239 4.8 11.3 0.00 0.00 0.00 52 1027.6
20260504225601 26 357 8.0 17.7 0.00 0.00 0.00 51 1027.4
20260504225058 26 201 4.8 12.9 0.00 0.00 0.00 52 1027.4
20260504224554 27 170 6.4 20.9 0.00 0.00 0.00 50 1027.4
20260504224052 27 98 3.2 12.9 0.00 0.00 0.00 51 1027.3
20260504223548 27 165 3.2 16.1 0.00 0.00 0.00 51 1027.2
20260504223044 27 178 14.5 27.4 0.00 0.00 0.00 50 1027.1
20260504222541 27 75 3.2 6.4 0.00 0.00 0.00 50 1027.2
20260504222038 27 168 8.0 14.5 0.00 0.00 0.00 49 1027.7
20260504221536 27 196 17.7 24.1 0.00 0.00 0.00 49 1027.5
20260504221032 27 130 1.6 14.5 0.00 0.00 0.00 50 1027.6
20260504220529 27 131 6.4 9.7 0.00 0.00 0.00 49 1027.6
20260504220026 27 275 1.6 11.3 0.00 0.00 0.00 49 1027.7
20260504215522 26 157 4.8 12.9 0.00 0.00 0.00 51 1027.8
20260504215020 27 209 6.4 11.3 0.00 0.00 0.00 49 1028.0
20260504214516 27 359 1.6 9.7 0.00 0.00 0.00 49 1028.0
20260504214012 27 153 3.2 20.9 0.00 0.00 0.00 50 1028.2
20260504213509 27 249 3.2 11.3 0.00 0.00 0.00 49 1028.2
20260504213006 27 206 4.8 9.7 0.00 0.00 0.00 49 1028.2
20260504212501 26 196 8.0 25.7 0.00 0.00 0.00 49 1028.4
20260504211959 27 211 14.5 17.7 0.00 0.00 0.00 48 1028.7
20260504211456 27 269 1.6 4.8 0.00 0.00 0.00 49 1028.5
20260504210953 27 244 1.6 6.4 0.00 0.00 0.00 50 1028.6
20260504210450 27 10 3.2 12.9 0.00 0.00 0.00 49 1028.7
20260504205947 26 19 1.6 20.9 0.00 0.00 0.00 50 1028.9
20260504205444 26 237 3.2 6.4 0.00 0.00 0.00 50 1028.9
20260504204942 27 225 6.4 14.5 0.00 0.00 0.00 48 1029.0
20260504204440 27 325 1.6 12.9 0.00 0.00 0.00 48 1029.2
20260504203939 27 204 8.0 14.5 0.00 0.00 0.00 48 1029.0
20260504203437 27 176 8.0 14.5 0.00 0.00 0.00 47 1029.3
20260504202932 27 245 6.4 14.5 0.00 0.00 0.00 47 1029.4
20260504202429 27 150 9.7 16.1 0.00 0.00 0.00 47 1029.6
20260504201926 27 195 3.2 11.3 0.00 0.00 0.00 48 1029.5
20260504201423 26 124 3.2 14.5 0.00 0.00 0.00 50 1029.5
20260504200921 26 215 0.0 9.7 0.00 0.00 0.00 48 1029.6
20260504200417 27 16 3.2 11.3 0.00 0.00 0.00 49 1029.8
20260504195914 27 72 3.2 6.4 0.00 0.00 0.00 49 1029.7
20260504195410 27 209 6.4 14.5 0.00 0.00 0.00 47 1030.0
20260504194907 27 310 1.6 16.1 0.00 0.00 0.00 48 1030.2
20260504194402 26 178 9.7 22.5 0.00 0.00 0.00 48 1030.3
20260504193859 26 97 1.6 14.5 0.00 0.00 0.00 49 1030.4
20260504193356 27 225 9.7 16.1 0.00 0.00 0.00 47 1030.3
20260504192855 27 287 8.0 11.3 0.00 0.00 0.00 48 1030.3
20260504192352 27 288 3.2 11.3 0.00 0.00 0.00 47 1030.3
20260504191850 27 302 6.4 14.5 0.00 0.00 0.00 48 1030.4
20260504191348 26 142 3.2 9.7 0.00 0.00 0.00 48 1030.6
20260504190843 26 299 4.8 12.9 0.00 0.00 0.00 51 1030.6
20260504190339 26 162 1.6 11.3 0.00 0.00 0.00 49 1030.7
20260504185836 26 18 3.2 9.7 0.00 0.00 0.00 49 1030.8
20260504185333 26 9 6.4 11.3 0.00 0.00 0.00 49 1031.0
20260504184829 26 95 6.4 22.5 0.00 0.00 0.00 49 1031.0
20260504184325 27 144 1.6 9.7 0.00 0.00 0.00 47 1031.1
20260504183821 26 169 3.2 6.4 0.00 0.00 0.00 49 1031.1
20260504183318 26 152 3.2 16.1 0.00 0.00 0.00 49 1031.2
20260504182816 26 33 4.8 20.9 0.00 0.00 0.00 49 1031.3
20260504182313 26 128 6.4 20.9 0.00 0.00 0.00 48 1031.2
20260504181810 26 41 3.2 17.7 0.00 0.00 0.00 48 1031.4
20260504181308 26 111 4.8 16.1 0.00 0.00 0.00 47 1031.4
20260504180807 26 210 8.0 22.5 0.00 0.00 0.00 47 1031.4
20260504180305 26 161 1.6 6.4 0.00 0.00 0.00 47 1031.5
20260504175803 25 190 3.2 11.3 0.00 0.00 0.00 48 1031.9
20260504175259 25 146 8.0 12.9 0.00 0.00 0.00 48 1031.8
20260504174757 26 154 12.9 17.7 0.00 0.00 0.00 46 1032.1
20260504174254 26 8 1.6 20.9 0.00 0.00 0.00 46 1031.9
20260504173751 25 238 3.2 12.9 0.00 0.00 0.00 48 1032.1
20260504173248 26 19 4.8 16.1 0.00 0.00 0.00 46 1032.4
20260504172744 25 173 3.2 12.9 0.00 0.00 0.00 47 1032.3
20260504172241 25 244 3.2 9.7 0.00 0.00 0.00 47 1032.4
20260504171737 25 221 6.4 9.7 0.00 0.00 0.00 46 1032.6
20260504171234 25 159 4.8 24.1 0.00 0.00 0.00 47 1032.6
20260504170732 25 232 12.9 22.5 0.00 0.00 0.00 49 1032.6
20260504170229 25 183 3.2 22.5 0.00 0.00 0.00 48 1032.8
20260504160147 23 124 9.7 14.5 0.00 0.00 0.00 50 1033.3
20260504151114 21 196 3.2 11.3 0.00 0.00 0.00 55 1033.6
20260504150612 21 349 1.6 14.5 0.00 0.00 0.00 56 1033.6
20260504150109 21 211 1.6 16.1 0.00 0.00 0.00 55 1033.6